Dewpoint
68 69 67 68 69 70 68 67 68 69 71 70 70 70 71 72 70 71 74 74 75 74 76 74 76 76 76 76 76 76 79 74 74 74 75 75 74 74 74 72 72 70
69 69 69 68 69 70 71 68 69 67 71 71 70 69 71 72 71 71 74 74 75 74 75 76 75 75 76 76 76 75 75 76 75 76 74 75 74 74 73 73 73 72
69 69 69 68 67 68 70 70 70 68 70 71 71 70 70 72 71 73 73 74 74 74 75 76 76 76 76 76 76 76 75 75 74 75 74 74 74 74 74 74 72 72
69 69 68 68 67 68 68 71 71 70 70 71 72 71 70 70 70 73 72 76 73 73 75 75 76 76 76 76 76 75 76 76 76 75 75 75 75 74 73 73 74 73
69 69 68 68 68 69 68 70 71 71 70 71 71 72 72 70 70 69 73 74 73 73 74 75 76 76 76 76 76 75 75 75 76 75 75 75 74 74 74 75 74 73
70 69 69 69 69 69 68 69 71 72 71 71 71 72 72 71 70 68 73 73 73 73 74 74 75 75 76 75 76 75 75 75 75 75 75 75 75 75 75 74 73 74
70 70 70 69 69 70 69 69 70 72 71 71 71 70 72 71 70 69 70 72 73 73 73 74 74 75 75 75 75 75 75 75 74 75 74 74 75 75 75 74 74 73
70 70 70 70 69 70 70 70 70 71 72 71 70 69 70 71 70 70 70 71 72 73 73 73 74 74 75 75 75 75 74 75 74 75 74 74 75 74 74 75 74 73
70 70 70 70 69 70 70 70 70 71 72 71 70 69 69 70 71 70 70 71 71 72 72 73 74 74 74 74 74 75 74 74 74 75 74 74 74 74 74 74 74 74
70 70 70 70 69 69 70 71 71 71 72 71 70 70 69 69 71 71 71 71 71 72 72 72 73 73 73 73 74 74 74 74 74 73 74 74 74 74 74 74 73 73
70 70 70 70 69 69 70 71 71 71 72 71 70 70 69 69 70 71 72 72 71 72 72 72 72 73 73 72 73 74 74 74 74 73 73 74 74 74 76 74 74 73
71 70 69 69 69 69 70 70 71 71 71 72 70 69 70 69 69 70 71 72 72 72 72 72 72 73 73 72 72 73 74 74 74 74 73 72 73 74 74 74 74 73
71 70 70 69 69 69 69 70 70 71 71 71 71 69 69 69 68 69 70 72 72 72 72 72 72 73 73 72 72 73 73 74 74 74 74 73 72 73 74 74 74 73
71 70 70 69 69 70 70 70 70 71 71 71 71 70 68 68 68 68 69 71 72 72 72 72 71 72 72 72 72 72 73 73 73 73 73 73 73 73 73 73 73 73
72 71 70 70 70 70 70 70 70 71 71 71 71 70 68 68 69 69 69 70 71 72 72 72 71 72 72 72 72 71 72 72 73 73 73 73 72 72 73 73 73 72
72 71 71 70 70 70 70 70 70 71 71 71 70 70 69 68 68 69 69 69 70 71 71 72 72 72 72 69 70 72 71 71 72 73 73 73 73 72 72 73 72 72
72 71 71 71 71 70 70 71 70 71 71 71 71 70 70 69 68 68 69 70 70 70 70 71 72 72 68 66 67 68 71 71 72 72 72 72 72 72 72 71 72 72
72 71 71 71 71 71 71 71 71 71 71 71 71 71 70 69 68 69 69 70 70 71 70 70 71 70 65 65 66 66 69 72 71 72 72 72 72 72 72 72 71 72
72 71 71 71 71 71 71 71 71 71 70 71 71 71 71 70 69 69 69 69 70 71 71 71 71 68 64 64 65 65 66 70 71 71 72 72 72 71 71 72 72 71
72 72 71 71 72 72 71 71 71 71 71 71 72 72 71 70 69 69 70 70 70 71 72 72 71 68 63 62 63 63 64 67 71 70 71 72 72 72 71 71 72 71
73 72 72 72 72 72 72 71 71 71 71 71 71 71 71 70 69 68 70 71 70 71 72 72 72 66 62 61 61 62 63 66 71 71 70 70 72 72 72 72 71 72
73 72 72 72 72 72 72 72 71 71 71 71 70 71 71 71 70 69 69 70 71 71 71 72 72 63 61 61 61 61 62 69 71 72 71 71 70 72 73 73 72 72
73 73 72 72 72 72 72 72 71 71 71 72 70 70 71 71 70 69 69 69 70 71 71 71 71 65 60 59 60 60 62 70 71 72 72 72 72 72 72 73 73 72
73 73 73 72 72 72 72 72 72 71 71 72 71 69 70 71 70 70 70 69 69 69 71 71 71 66 58 58 59 59 64 70 72 72 72 72 72 72 73 74 75 77
74 74 73 73 72 72 72 72 72 72 71 72 72 70 69 71 71 71 70 70 69 69 71 71 71 67 57 58 58 58 64 71 72 72 72 72 72 71 71 72 72 75
74 74 74 73 73 72 72 73 73 72 71 71 71 71 69 70 71 71 70 70 70 70 69 69 69 72 64 56 56 56 59 71 72 72 72 72 72 72 71 71 70 71